Flight Information

DEPARTURE
AMARILLO, TX
Elevation:
3606
Runways:
4/22 - 13502x200 - CONC-G
13/31 - 7901x150 - CONC-G
ATIS:
118.85
Clearance Delivery:
121.65
Ground:
121.9
Tower:
AMARILLO TOWER 118.3
DESTINATION
,
Elevation:
TPA:
1000 (est.)


5972.2 NM83° True-9° Var73° HDG

Flight Plan:
(click to file on line)

1. Type
2. Aircraft Identification
3. Aircraft Type / Special Equipment
4. True Airspeed
kts
5. Departure Airport
(ICAO code)
6. Arriving Airport
(ICAO code)
7. Cruising Altitude
ft
8. Alternate Airport
(ICAO code)
9. Route of Flight
10. Remarks


00:00:00 Departure ATIS: Destination ATIS:

Clearance Limit:
Route:
Altitude: Expect in minutes
Frequency:
Transponder: (7500 Hijack / 7600 Lost Comms / 7700 Emergency)


KAMA 211753Z 01014G24KT 10SM FEW095 21/04 A3046 RMK AO2 PK WND 02031/1737 SLP278 T02110039 10217 20106 50008
Time: 2021-09-21T17:53:00Z
1632248971
Winds: 10 @ 14 kts
Gusting:24 kts
Visibility: 10.0 sm
Clouds (AGL): FEW 9500
Temperature: 21.1 C
Dew Point: 3.9 C
Pressure: 30.46063 in Hgbr


Notes:

Data extracted from FAA Digital Chart Supplement. Effective: 0901Z Thursday, AUG 12, 2021 to 0901Z Thursday, OCT 7, 2021
Current ATIS data is provided courtisy of PilotEdge.